Máquina de Café Cecotec compativel com Dolce Gusto, Nespresso, ESE Pod e Senseo FreeStyle Compact Dark 20 Bares Multicápsulas 1200W – Preto

32,50

Licitar acima: 0,50

Tempo restante:

Dias
Horas
Minutos
Segundos

A sua licitação automática:

Total utilizado do fundo de dinheiro para licitação automática.

Adicionar à lista de observação 8 Utilizadores a observar
Licitante Valor da licitação Tempo de licitação
d********************m 32,50 2026-05-08 23:51:57
f****************t 32,00 2026-05-08 18:58:33
t*********************m 31,50 2026-05-08 16:17:27
s*****************t 31,00 2026-05-08 16:05:28
t*********************m 30,00 2026-05-08 16:17:24
t*********************m 29,50 2026-05-08 15:53:05
s*****************t 29,00 2026-05-08 12:21:37
t*********************m 29,00 2026-05-08 15:53:01
t*********************m 28,00 2026-05-08 15:52:56
n********************m 27,00 2026-05-08 12:02:05
s*****************t 27,00 2026-05-08 12:21:26
s*****************t 25,00 2026-05-08 12:21:15
s*****************t 22,00 2026-05-08 09:40:24
f**************************m 22,00 2026-05-08 11:28:55
f**************************m 20,00 2026-05-08 09:09:11
s*****************t 20,00 2026-05-08 09:40:16
f****************t 18,00 2026-05-07 19:58:15
c************************m 17,00 2026-05-08 07:20:17
s******************m 16,00 2026-05-07 22:39:03
j***************m 15,00 2026-05-07 18:27:02
f****************t 15,00 2026-05-07 19:56:47
f****************t 10,00 2026-05-07 19:56:21
a********************m 0,40 2026-05-07 19:37:59
Iniciar leilão 0,20 06/05/2026 18:32:00

Descrição

Informação adicional

Peso 4,135 kg

Outros Leilões

Ver todos os leilões

Seleccione um ponto de entrega